EW1587 Weather Reports


time (UTC)temp
C
wind
direction
speed
KPH
gust
KPH
rain 1hr
cm
rain 24hr
cm
rain mn
cm
humidity
%
barometer
mb
20260903003528 27 105 0.0 1.6 0.00 0.00 0.00 62 1009.4
20260903003028 28 64 0.0 1.6 0.00 0.00 0.00 61 1009.5
20260903002630 29 67 0.0 1.6 0.00 0.00 0.00 56 1009.6
20260903002028 30 152 0.0 0.0 0.00 0.00 0.00 51 1009.6
20260903001527 31 152 0.0 1.6 0.00 0.00 0.00 51 1009.5
20260903001033 31 127 0.0 1.6 0.00 0.00 0.00 51 1009.4
20260903000527 31 166 0.0 1.6 0.00 0.00 0.00 51 1009.4
20260903000027 31 122 0.0 1.6 0.00 0.00 0.00 51 1009.4
20260902235526 31 146 0.0 1.6 0.00 0.00 0.00 50 1009.6
20260902235025 31 175 0.0 3.2 0.00 0.00 0.00 51 1009.4
20260902234525 31 118 0.0 3.2 0.00 0.00 0.00 50 1009.4
20260902234025 31 111 0.0 4.8 0.00 0.00 0.00 49 1009.4
20260902233525 31 124 0.0 6.4 0.00 0.00 0.00 50 1009.5
20260902233025 31 204 0.0 3.2 0.00 0.00 0.00 49 1009.4
20260902232525 31 179 0.0 1.6 0.00 0.00 0.00 50 1009.4
20260902232026 30 123 0.0 3.2 0.00 0.00 0.00 51 1009.4
20260902231523 30 105 0.0 4.8 0.00 0.00 0.00 50 1009.3
20260902231022 30 68 0.0 8.0 0.00 0.00 0.00 49 1009.4
20260902230523 30 99 3.2 8.0 0.00 0.00 0.00 48 1009.5
20260902230023 30 118 0.0 6.4 0.00 0.00 0.00 50 1009.5
20260902225624 30 235 0.0 8.0 0.00 0.00 0.00 51 1009.5
20260902225023 30 110 0.0 6.4 0.00 0.00 0.00 51 1009.5
20260902224520 30 95 0.0 6.4 0.00 0.00 0.00 51 1009.5
20260902224019 30 110 1.6 6.4 0.00 0.00 0.00 48 1009.5
20260902223519 31 105 0.0 4.8 0.00 0.00 0.00 48 1009.6
20260902223027 31 53 0.0 3.2 0.00 0.00 0.00 47 1009.7
20260902222518 31 125 0.0 4.8 0.00 0.00 0.00 46 1009.6
20260902222017 31 61 0.0 4.8 0.00 0.00 0.00 47 1009.7
20260902221518 31 335 0.0 3.2 0.00 0.00 0.00 49 1009.6
20260902221015 31 110 0.0 4.8 0.00 0.00 0.00 50 1009.6
20260902220514 30 259 0.0 8.0 0.00 0.00 0.00 51 1009.7
20260902220020 29 253 0.0 8.0 0.00 0.00 0.00 53 1009.7
20260902215514 29 111 3.2 6.4 0.00 0.00 0.00 53 1009.7
20260902215013 28 64 0.0 8.0 0.00 0.00 0.00 54 1009.7
20260902214513 28 92 1.6 9.7 0.00 0.00 0.00 53 1009.8
20260902214012 28 96 1.6 9.7 0.00 0.00 0.00 53 1009.8
20260902213511 29 114 3.2 9.7 0.00 0.00 0.00 53 1009.9
20260902213011 29 120 1.6 8.0 0.00 0.00 0.00 53 1009.9
20260902212511 28 119 1.6 6.4 0.00 0.00 0.00 53 1009.9
20260902212011 28 88 1.6 6.4 0.00 0.00 0.00 53 1010.0
20260902211510 28 114 1.6 8.0 0.00 0.00 0.00 54 1010.0
20260902211011 28 110 3.2 9.7 0.00 0.00 0.00 53 1010.1
20260902210509 28 71 4.8 8.0 0.00 0.00 0.00 53 1010.1
20260902210010 29 91 4.8 9.7 0.00 0.00 0.00 52 1010.1
20260902205510 29 98 4.8 9.7 0.00 0.00 0.00 52 1010.2
20260902205008 29 156 1.6 9.7 0.00 0.00 0.00 50 1010.2
20260902204509 30 84 3.2 8.0 0.00 0.00 0.00 50 1010.1
20260902204006 30 158 1.6 8.0 0.00 0.00 0.00 50 1010.1
20260902203508 30 99 3.2 6.4 0.00 0.00 0.00 49 1010.3
20260902203006 30 153 0.0 4.8 0.00 0.00 0.00 51 1010.3
20260902202505 30 20 0.0 8.0 0.00 0.00 0.00 50 1010.3
20260902202005 30 219 1.6 9.7 0.00 0.00 0.00 48 1010.3
20260902201511 30 172 0.0 9.7 0.00 0.00 0.00 54 1010.3
20260902201002 30 295 0.0 9.7 0.00 0.00 0.00 54 1010.4
20260902200501 29 72 1.6 9.7 0.00 0.00 0.00 56 1010.5
20260902200101 29 127 3.2 8.0 0.00 0.00 0.00 55 1010.4
20260902195559 28 124 0.0 9.7 0.00 0.00 0.00 56 1010.4
20260902195057 28 223 1.6 12.9 0.00 0.00 0.00 57 1010.4
20260902194602 28 117 3.2 12.9 0.00 0.00 0.00 57 1010.5
20260902194057 28 113 8.0 14.5 0.00 0.00 0.00 57 1010.5
20260902193556 28 68 6.4 14.5 0.00 0.00 0.00 56 1010.5
20260902193059 28 77 0.0 9.7 0.00 0.00 0.00 58 1010.7
20260902192555 28 56 3.2 9.7 0.00 0.00 0.00 57 1010.7
20260902192056 28 65 1.6 8.0 0.00 0.00 0.00 57 1010.7
20260902191554 28 115 0.0 6.4 0.00 0.00 0.00 59 1010.8
20260902191052 28 122 0.0 6.4 0.00 0.00 0.00 59 1010.7
20260902190551 27 109 1.6 6.4 0.00 0.00 0.00 60 1010.8
20260902190050 27 58 0.0 6.4 0.00 0.00 0.00 58 1010.9
20260902185550 27 67 0.0 8.0 0.00 0.00 0.00 60 1010.9
20260902185051 27 93 3.2 12.9 0.00 0.00 0.00 60 1011.1
20260902184551 27 69 4.8 12.9 0.00 0.00 0.00 60 1011.1
20260902184051 27 34 6.4 11.3 0.00 0.00 0.00 58 1011.2
20260902183547 27 73 1.6 9.7 0.00 0.00 0.00 60 1011.3
20260902183047 27 174 0.0 8.0 0.00 0.00 0.00 60 1011.3
20260902182545 27 96 4.8 8.0 0.00 0.00 0.00 62 1011.4
20260902182045 26 61 0.0 8.0 0.00 0.00 0.00 61 1011.4
20260902181553 26 18 0.0 8.0 0.00 0.00 0.00 62 1011.4
20260902181046 26 101 1.6 11.3 0.00 0.00 0.00 63 1011.4
20260902180545 26 173 3.2 14.5 0.00 0.00 0.00 60 1011.4
20260902180045 26 115 6.4 14.5 0.00 0.00 0.00 64 1011.4
20260902175544 26 117 6.4 12.9 0.00 0.00 0.00 59 1011.4
20260902175047 27 84 4.8 9.7 0.00 0.00 0.00 60 1011.5
20260902174547 27 78 3.2 9.7 0.00 0.00 0.00 61 1011.6
20260902174044 27 122 0.0 8.0 0.00 0.00 0.00 60 1011.6
20260902173543 27 101 1.6 8.0 0.00 0.00 0.00 60 1011.7
20260902173046 27 214 0.0 9.7 0.00 0.00 0.00 59 1011.7
20260902172541 27 72 1.6 9.7 0.00 0.00 0.00 64 1011.8
20260902172040 27 82 1.6 8.0 0.00 0.00 0.00 64 1011.8
20260902171548 26 160 0.0 8.0 0.00 0.00 0.00 65 1011.8
20260902171038 26 109 1.6 8.0 0.00 0.00 0.00 66 1011.8
20260902170536 26 85 0.0 6.4 0.00 0.00 0.00 70 1011.8
20260902170035 25 187 0.0 4.8 0.00 0.00 0.00 72 1012.1
20260902165534 25 103 1.6 8.0 0.00 0.00 0.00 71 1012.2
20260902165033 25 92 1.6 8.0 0.00 0.00 0.00 71 1012.1
20260902164533 25 67 3.2 8.0 0.00 0.00 0.00 69 1012.1
20260902164030 24 50 0.0 8.0 0.00 0.00 0.00 70 1012.0
20260902163531 24 103 4.8 9.7 0.00 0.00 0.00 69 1011.9
20260902163030 24 82 4.8 9.7 0.00 0.00 0.00 70 1011.9
20260902162528 24 110 4.8 9.7 0.00 0.00 0.00 71 1011.9
20260902162028 24 118 0.0 4.8 0.00 0.00 0.00 72 1012.1
20260902161528 24 96 1.6 6.4 0.00 0.00 0.00 72 1011.9
20260902161030 24 110 1.6 6.4 0.00 0.00 0.00 72 1012.0
20260902160527 24 51 0.0 9.7 0.00 0.00 0.00 71 1012.0
20260902160026 24 91 3.2 8.0 0.00 0.00 0.00 74 1011.9
20260902155525 23 20 0.0 4.8 0.00 0.00 0.00 75 1012.0
20260902155025 23 104 0.0 4.8 0.00 0.00 0.00 75 1011.9
20260902154527 23 65 0.0 1.6 0.00 0.00 0.00 75 1012.0
20260902154024 23 50 0.0 1.6 0.00 0.00 0.00 74 1012.0
20260902153523 23 65 0.0 1.6 0.00 0.00 0.00 78 1012.1
20260902153021 23 231 0.0 1.6 0.00 0.00 0.00 80 1012.1
20260902152520 22 298 0.0 3.2 0.00 0.00 0.00 80 1012.2
20260902152020 22 294 0.0 4.8 0.00 0.00 0.00 81 1012.0
20260902151521 22 83 0.0 4.8 0.00 0.00 0.00 80 1011.7
20260902151020 22 77 0.0 3.2 0.00 0.00 0.00 80 1011.6
20260902150520 22 104 0.0 4.8 0.00 0.00 0.00 79 1011.7
20260902150020 22 81 0.0 4.8 0.00 0.00 0.00 78 1011.7
20260902145519 22 92 0.0 1.6 0.00 0.00 0.00 79 1011.5
20260902145038 22 189 0.0 3.2 0.00 0.00 0.00 80 1011.5
20260902144516 22 134 0.0 3.2 0.00 0.00 0.00 79 1011.7
20260902144017 22 175 0.0 3.2 0.00 0.00 0.00 80 1012.0
20260902143516 22 101 0.0 4.8 0.00 0.00 0.00 80 1011.8
20260902143016 22 139 0.0 4.8 0.00 0.00 0.00 80 1011.8
20260902142516 22 187 0.0 4.8 0.00 0.00 0.00 79 1011.9
20260902142016 22 75 0.0 6.4 0.00 0.00 0.00 80 1012.0
20260902141515 22 201 1.6 6.4 0.00 0.00 0.00 80 1012.0
20260902141016 22 122 0.0 3.2 0.00 0.00 0.00 81 1012.0
20260902140514 21 133 0.0 3.2 0.00 0.00 0.00 82 1012.0
20260902140013 21 143 0.0 6.4 0.00 0.00 0.00 82 1012.0
20260902135539 21 105 1.6 4.8 0.00 0.00 0.00 81 1011.9
20260902135008 21 122 0.0 4.8 0.00 0.00 0.00 83 1012.1
20260902134520 21 99 0.0 6.4 0.00 0.00 0.00 81 1012.1
20260902134007 21 210 0.0 6.4 0.00 0.00 0.00 83 1012.0
20260902133505 21 67 0.0 3.2 0.00 0.00 0.00 83 1012.1
20260902133004 20 101 0.0 4.8 0.00 0.00 0.00 85 1012.3
20260902132507 20 88 1.6 4.8 0.00 0.00 0.00 84 1012.4
20260902132003 20 92 0.0 3.2 0.00 0.00 0.00 86 1012.4
20260902131503 20 104 0.0 8.0 0.00 0.00 0.00 86 1012.2
20260902131003 20 158 1.6 8.0 0.00 0.00 0.00 87 1012.1
20260902130503 19 82 0.0 6.4 0.00 0.00 0.00 89 1012.2
20260902130002 18 105 0.0 8.0 0.00 0.00 0.00 90 1012.2
20260902125557 18 94 1.6 8.0 0.00 0.00 0.00 90 1012.2
20260902125057 18 100 1.6 4.8 0.00 0.00 0.00 93 1012.1
20260902124604 17 86 0.0 3.2 0.00 0.00 0.00 95 1012.1
20260902124055 17 105 0.0 1.6 0.00 0.00 0.00 95 1012.1
20260902123629 17 82 0.0 4.8 0.00 0.00 0.00 94 1012.1
20260902123104 17 93 0.0 4.8 0.00 0.00 0.00 93 1012.0
20260902122550 17 64 1.6 4.8 0.00 0.00 0.00 93 1012.0
20260902122049 17 64 0.0 4.8 0.00 0.00 0.00 93 1012.2
20260902121548 17 65 3.2 4.8 0.00 0.00 0.00 93 1012.1
20260902121049 17 75 0.0 1.6 0.00 0.00 0.00 92 1012.0
20260902120530 17 94 0.0 1.6 0.00 0.00 0.00 92 1011.9
20260902120048 17 108 0.0 1.6 0.00 0.00 0.00 92 1011.9
20260902115546 17 94 0.0 1.6 0.00 0.00 0.00 92 1011.9
20260902115046 17 79 0.0 1.6 0.00 0.00 0.00 91 1011.9
20260902114553 17 100 0.0 1.6 0.00 0.00 0.00 91 1011.9
20260902114046 17 89 0.0 1.6 0.00 0.00 0.00 91 1011.9
20260902113546 18 79 0.0 1.6 0.00 0.00 0.00 91 1011.8
20260902113044 18 101 0.0 1.6 0.00 0.00 0.00 90 1011.9
20260902112543 18 93 0.0 1.6 0.00 0.00 0.00 90 1011.9
20260902112046 18 82 0.0 1.6 0.00 0.00 0.00 90 1012.0
20260902111546 18 75 0.0 3.2 0.00 0.00 0.00 89 1012.2
20260902111041 18 77 0.0 3.2 0.00 0.00 0.00 89 1012.1
20260902110540 18 226 0.0 1.6 0.00 0.00 0.00 89 1012.0
20260902110057 18 75 0.0 1.6 0.00 0.00 0.00 89 1011.9
20260902105540 18 77 0.0 0.0 0.00 0.00 0.00 89 1012.0
20260902105039 18 88 0.0 1.6 0.00 0.00 0.00 88 1012.0
20260902104539 18 90 0.0 1.6 0.00 0.00 0.00 88 1012.1
20260902104041 18 79 0.0 1.6 0.00 0.00 0.00 87 1012.2
20260902103638 18 274 0.0 4.8 0.00 0.00 0.00 87 1012.2
20260902103040 18 130 0.0 9.7 0.00 0.00 0.00 88 1012.2
20260902102542 18 177 3.2 9.7 0.00 0.00 0.00 88 1012.3
20260902102038 18 269 0.0 8.0 0.00 0.00 0.00 88 1012.4
20260902101540 18 248 0.0 1.6 0.00 0.00 0.00 87 1012.5
20260902101037 18 278 0.0 1.6 0.00 0.00 0.00 87 1012.4
20260902100541 18 232 0.0 1.6 0.00 0.00 0.00 86 1012.3
20260902100037 18 239 0.0 0.0 0.00 0.00 0.00 86 1012.4
20260902095537 18 239 0.0 0.0 0.00 0.00 0.00 85 1012.3
20260902095034 18 50 0.0 0.0 0.00 0.00 0.00 85 1012.0
20260902094542 18 50 0.0 0.0 0.00 0.00 0.00 84 1011.8
20260902094033 18 50 0.0 0.0 0.00 0.00 0.00 84 1011.6
20260902093532 18 50 0.0 4.8 0.00 0.00 0.00 84 1011.7
20260902093033 18 50 0.0 6.4 0.00 0.00 0.00 84 1011.6
20260902092533 18 58 4.8 8.0 0.00 0.00 0.00 84 1011.4
20260902092036 19 84 0.0 8.0 0.00 0.00 0.00 83 1011.3
20260902091533 19 68 3.2 6.4 0.00 0.00 0.00 81 1011.1
20260902091033 19 60 0.0 3.2 0.00 0.00 0.00 81 1011.1
20260902090533 19 77 0.0 4.8 0.00 0.00 0.00 81 1011.2
20260902090034 19 83 0.0 4.8 0.00 0.00 0.00 81 1011.1
20260902085531 19 96 1.6 3.2 0.00 0.00 0.00 81 1011.0
20260902085030 19 86 0.0 4.8 0.00 0.00 0.00 81 1011.1
20260902084538 19 101 1.6 4.8 0.00 0.00 0.00 81 1011.1
20260902084031 19 95 1.6 4.8 0.00 0.00 0.00 82 1011.2
20260902083531 19 84 0.0 6.4 0.00 0.00 0.00 81 1011.1
20260902083028 19 86 1.6 6.4 0.00 0.00 0.00 81 1011.5
20260902082531 19 97 0.0 3.2 0.00 0.00 0.00 81 1011.8
20260902082027 19 95 0.0 6.4 0.00 0.00 0.00 81 1011.9
20260902081527 19 54 0.0 6.4 0.00 0.00 0.00 82 1011.7
20260902081029 19 91 0.0 6.4 0.00 0.00 0.00 82 1011.9
20260902080527 19 93 0.0 6.4 0.00 0.00 0.00 84 1011.9
20260902080048 18 94 0.0 3.2 0.00 0.00 0.00 84 1011.8
20260902075525 19 89 0.0 3.2 0.00 0.00 0.00 84 1011.7
20260902075025 19 92 0.0 3.2 0.00 0.00 0.00 84 1011.8
20260902074526 19 88 1.6 3.2 0.00 0.00 0.00 84 1011.7
20260902074026 18 93 0.0 3.2 0.00 0.00 0.00 84 1011.7
20260902073525 18 188 0.0 3.2 0.00 0.00 0.00 84 1011.7
20260902073025 18 151 0.0 6.4 0.00 0.00 0.00 84 1011.7
20260902072525 19 155 0.0 6.4 0.00 0.00 0.00 84 1011.5
20260902072024 19 309 0.0 4.8 0.00 0.00 0.00 83 1011.5
20260902071533 19 82 0.0 1.6 0.00 0.00 0.00 83 1011.5
20260902071026 19 133 0.0 3.2 0.00 0.00 0.00 82 1011.9
20260902070522 19 105 0.0 3.2 0.00 0.00 0.00 82 1011.9
20260902070025 19 96 0.0 1.6 0.00 0.00 0.00 82 1011.9
20260902065521 19 85 0.0 1.6 0.00 0.00 0.00 83 1011.8
20260902065021 19 96 0.0 3.2 0.00 0.00 0.00 83 1011.8
20260902064524 20 75 0.0 3.2 0.00 0.00 0.00 82 1011.9
20260902064018 20 89 0.0 3.2 0.00 0.00 0.00 79 1012.1
20260902063518 20 84 0.0 1.6 0.00 0.00 0.00 77 1012.3
20260902063029 20 100 0.0 0.0 0.00 0.00 0.00 76 1012.4
20260902062518 20 101 0.0 0.0 0.00 0.00 0.00 75 1012.4
20260902062021 20 101 0.0 4.8 0.00 0.00 0.00 75 1012.5
20260902061530 20 101 0.0 4.8 0.00 0.00 0.00 76 1012.4
20260902061018 20 96 0.0 3.2 0.00 0.00 0.00 76 1012.3
20260902060517 20 123 0.0 3.2 0.00 0.00 0.00 79 1012.3
20260902060020 20 92 0.0 3.2 0.00 0.00 0.00 79 1012.1
20260902055516 20 81 0.0 6.4 0.00 0.00 0.00 79 1011.9
20260902055016 20 63 4.8 8.0 0.00 0.00 0.00 79 1011.8
20260902054520 20 60 4.8 8.0 0.00 0.00 0.00 79 1012.0
20260902054015 19 65 4.8 8.0 0.00 0.00 0.00 81 1012.2
20260902053514 19 56 1.6 6.4 0.00 0.00 0.00 82 1012.2
20260902053018 20 61 4.8 6.4 0.00 0.00 0.00 81 1012.2
20260902052513 20 58 0.0 8.0 0.00 0.00 0.00 78 1012.2
20260902052009 21 65 1.6 8.0 0.00 0.00 0.00 76 1012.4
20260902051509 21 65 8.0 9.7 0.00 0.00 0.00 75 1012.6
20260902051006 20 67 4.8 6.4 0.00 0.00 0.00 77 1012.8
20260902050506 20 65 3.2 3.2 0.00 0.00 0.00 80 1012.6
20260902050007 20 74 0.0 0.0 0.00 0.00 0.00 80 1012.8
20260902045504 20 79 0.0 0.0 0.00 0.00 0.00 80 1012.7
20260902045006 20 79 0.0 0.0 0.00 0.00 0.00 79 1012.7
20260902044504 20 78 0.0 3.2 0.00 0.00 0.00 78 1012.8
20260902044006 21 71 0.0 3.2 0.00 0.00 0.00 77 1012.7
20260902043503 21 68 1.6 3.2 0.00 0.00 0.00 76 1012.8
20260902043003 21 61 0.0 3.2 0.00 0.00 0.00 76 1012.6
20260902042503 21 61 0.0 3.2 0.00 0.00 0.00 77 1012.7
20260902042003 21 56 0.0 3.2 0.00 0.00 0.00 79 1012.4
20260902041503 21 60 0.0 6.4 0.00 0.00 0.00 80 1012.2
20260902041003 20 61 4.8 6.4 0.00 0.00 0.00 81 1012.0
20260902040503 20 65 4.8 9.7 0.00 0.00 0.00 82 1012.0
20260902040002 20 63 6.4 9.7 0.00 0.00 0.00 83 1011.9
20260902035502 20 60 6.4 9.7 0.00 0.00 0.00 85 1012.0
20260902035001 20 64 1.6 4.8 0.00 0.00 0.00 86 1012.0
20260902034501 20 72 0.0 3.2 0.00 0.00 0.00 86 1012.2
20260902034002 20 65 0.0 3.2 0.00 0.00 0.00 85 1012.2
20260902033501 20 58 0.0 1.6 0.00 0.00 0.00 83 1012.4
20260902033001 20 304 0.0 0.0 0.00 0.00 0.00 82 1012.6
20260902032503 21 304 0.0 0.0 0.00 0.00 0.00 82 1012.7
20260902032001 21 303 0.0 0.0 0.00 0.00 0.00 83 1012.6
20260902031503 21 304 0.0 0.0 0.00 0.00 0.00 83 1012.5
20260902031002 21 303 0.0 0.0 0.00 0.00 0.00 85 1012.5
20260902030604 21 304 0.0 0.0 0.00 0.00 0.00 85 1012.5
20260902025559 21 304 0.0 1.6 0.00 0.00 0.00 86 1012.7
20260902025059 20 295 0.0 1.6 0.00 0.00 0.00 84 1012.8
20260902024600 20 322 0.0 0.0 0.00 0.00 0.00 81 1012.7
20260902024059 20 323 0.0 0.0 0.00 0.00 0.00 80 1012.5
20260902023559 20 323 0.0 0.0 0.00 0.00 0.00 80 1012.4
20260902023102 21 322 0.0 1.6 0.00 0.00 0.00 80 1012.3
20260902022559 21 321 0.0 1.6 0.00 0.00 0.00 79 1012.2
20260902022058 21 302 0.0 0.0 0.00 0.00 0.00 79 1012.3
20260902021608 21 290 0.0 0.0 0.00 0.00 0.00 79 1012.3
20260902021059 21 290 0.0 0.0 0.00 0.00 0.00 78 1012.3
20260902020559 21 290 0.0 0.0 0.00 0.00 0.00 77 1012.3
20260902020104 21 290 0.0 1.6 0.00 0.00 0.00 76 1012.3
20260902015601 21 290 0.0 1.6 0.00 0.00 0.00 75 1012.3
20260902015058 22 288 0.0 0.0 0.00 0.00 0.00 74 1012.3
20260902014601 22 288 0.0 0.0 0.00 0.00 0.00 74 1012.2
20260902014057 22 288 0.0 0.0 0.00 0.00 0.00 72 1012.1
20260902013557 22 288 0.0 0.0 0.00 0.00 0.00 71 1011.9
20260902013057 22 288 0.0 0.0 0.00 0.00 0.00 70 1012.0
20260902012559 22 288 0.0 0.0 0.00 0.00 0.00 69 1012.1
20260902012057 22 288 0.0 0.0 0.00 0.00 0.00 68 1012.0
20260902011557 23 288 0.0 0.0 0.00 0.00 0.00 68 1012.0
20260902011057 23 288 0.0 0.0 0.00 0.00 0.00 66 1012.0
20260902010556 23 288 0.0 1.6 0.00 0.00 0.00 65 1011.9
20260902010056 23 288 0.0 1.6 0.00 0.00 0.00 64 1011.9
20260902005555 23 290 0.0 1.6 0.00 0.00 0.00 63 1011.9
20260902005526 23 290 0.0 1.6 0.00 0.00 0.00 63 1012.0
20260902005056 23 23 0.0 1.6 0.00 0.00 0.00 65 1011.9
20260902004555 24 37 0.0 0.0 0.00 0.00 0.00 66 1011.7
20260902004055 24 22 0.0 1.6 0.00 0.00 0.00 63 1011.8